Meteo Giornale » Osservazioni meteo Russia » Moscow-Domodedovo
ore: 12:30 - Osservazioni Meteo Moscow-Domodedovo
Lat. 55° 24' N Lon. 37° 54' E Alt. 168 metri s.l.m.
24 °C
Nuvoloso
Temp. 24 Ore
11 °C
24 °C
Sud/Sud-Est
21.6 Km/h
Dew point 13 °C
Umidità 50 %
Visibilità 10 Km
Il sole sorge alle ore 05:34
Il sole tramonta alle ore 19:22
| Data e Ora | Cielo e Fenomeni | T °C | DP °C | Um. % | Pres. hPa | Vis. km | Vento km/h | |
|---|---|---|---|---|---|---|---|---|
| Oggi h: 12:30 | Nuvoloso | 24 | 13 | 50 | 1016 | 10 | S/SE 21.6 | |
| Oggi h: 12:00 | Nuvoloso | 23 | 13 | 53 | 1016 | 10 | S 18 | |
| Oggi h: 11:30 | Nuvoloso | 24 | 14 | 53 | 1016 | 10 | S/SE 18 | |
| Oggi h: 11:00 | Poco Nuvoloso | 23 | 14 | 56 | 1017 | 10 | S 14.4 | |
| Oggi h: 10:30 | Sereno | 22 | 14 | 60 | 1017 | 10 | N 7.2 | |
| Oggi h: 10:00 | Sereno | 22 | 14 | 60 | 1017 | 10 | S 10.8 | |
| Oggi h: 09:30 | Sereno | 21 | 15 | 68 | 1017 | 10 | S/SO 10.8 | |
| Oggi h: 09:00 | Sereno | 19 | 15 | 77 | 1017 | 10 | S 10.8 | |
| Oggi h: 08:30 | Sereno | 18 | 15 | 82 | 1017 | 10 | N 7.2 | |
| Oggi h: 08:00 | Sereno | 17 | 14 | 82 | 1017 | 10 | N 7.2 | |
| Oggi h: 07:30 | Sereno | 15 | 13 | 87 | 1017 | 8 | N 7.2 | |
| Oggi h: 07:00 | Sereno | 13 | 13 | 100 | 1017 | 8 | N 3.6 | |
| Oggi h: 06:30 | Poco Nuvoloso | 12 | 12 | 100 | 1017 | 8 | N 3.6 | |
| Oggi h: 06:00 | Foschia | 11 | 11 | 100 | 1017 | 3 | N 7.2 | |
| Oggi h: 05:30 | Foschia | 12 | 12 | 100 | 1017 | 3 | N 3.6 | |
| Oggi h: 05:00 | Foschia | 11 | 11 | 100 | 1017 | 3 | N 3.6 | |
| Oggi h: 04:58 | Foschia | 11 | 11 | 100 | 1017 | 2 | N 7.2 | |
| Oggi h: 04:53 | Foschia | 11 | 11 | 100 | 1017 | 2 | N 7.2 | |
| Oggi h: 04:35 | Nebbia a tratti | 11 | 11 | 100 | 1017 | 0.4 | N 3.6 | |
| Oggi h: 04:30 | Foschia | 11 | 11 | 100 | 1017 | 2 | N 3.6 | |
| Oggi h: 04:27 | Foschia | 12 | 11 | 93 | 1017 | 2 | N 3.6 | |
| Oggi h: 04:15 | Nebbia | 12 | 11 | 93 | 1017 | 0.2 | N 3.6 | |
| Oggi h: 04:14 | Nebbia a tratti | 12 | 11 | 93 | 1017 | 0.15 | N 3.6 | |
| Oggi h: 04:05 | Nebbia a tratti | 12 | 12 | 100 | 1017 | 0.05 | N 3.6 | |
| Oggi h: 04:00 | Foschia | 12 | 11 | 93 | 1017 | 1 | N 3.6 | |
| Oggi h: 03:51 | Foschia | 12 | 12 | 100 | 1017 | 4 | N 3.6 | |
| Oggi h: 03:30 | Nebbia a tratti | 11 | 11 | 100 | 1017 | 0.3 | N 3.6 | |
| Oggi h: 03:00 | Poco Nuvoloso | 12 | 12 | 100 | 1017 | 8 | N 3.6 | |
| Oggi h: 02:30 | Poco Nuvoloso | 13 | 12 | 93 | 1017 | 8 | N 3.6 | |
| Oggi h: 02:00 | Foschia | 13 | 12 | 93 | 1018 | 1 | N 3.6 | |
| Oggi h: 01:30 | Poco Nuvoloso | 13 | 13 | 100 | 1018 | 8 | N 7.2 | |
| Oggi h: 01:00 | Poco Nuvoloso | 13 | 13 | 100 | 1018 | 8 | N 7.2 | |
| Oggi h: 00:30 | Poco Nuvoloso | 13 | 13 | 100 | 1018 | 8 | N 7.2 | |
| Oggi h: 00:00 | Nebbia a tratti | 14 | 13 | 93 | 1018 | 0.4 | N 7.2 | |
| Ieri h: 23:30 | Poco Nuvoloso | 13 | 13 | 100 | 1018 | 8 | N 7.2 | |
| Ieri h: 23:00 | Poco Nuvoloso | 14 | 13 | 93 | 1018 | 8 | N 7.2 | |
| Ieri h: 22:30 | Poco Nuvoloso | 13 | 13 | 100 | 1018 | 8 | N 7.2 | |
| Ieri h: 22:00 | Sereno | 14 | 13 | 93 | 1018 | 10 | N 7.2 | |
| Ieri h: 21:30 | Sereno | 13 | 13 | 100 | 1018 | 10 | N 3.6 | |
| Ieri h: 21:00 | Sereno | 13 | 12 | 93 | 1018 | 10 | N 3.6 | |
| Ieri h: 20:30 | Sereno | 14 | 14 | 100 | 1018 | 10 | N 3.6 | |
| Ieri h: 20:00 | Sereno | 15 | 14 | 93 | 1018 | 10 | N 7.2 | |
| Ieri h: 19:30 | Sereno | 16 | 13 | 82 | 1018 | 10 | N 3.6 | |
| Ieri h: 19:00 | Sereno | 17 | 13 | 77 | 1018 | 10 | O/NO 10.8 | |
| Ieri h: 18:30 | Sereno | 18 | 13 | 72 | 1018 | 10 | O/NO 10.8 | |
| Ieri h: 18:00 | Sereno | 19 | 13 | 68 | 1018 | 10 | O 10.8 | |
| Ieri h: 17:30 | Sereno | 19 | 13 | 68 | 1018 | 10 | O/NO 14.4 | |
| Ieri h: 17:00 | Sereno | 19 | 13 | 68 | 1018 | 10 | O 14.4 | |
| Ieri h: 16:30 | Nuvoloso | 20 | 13 | 64 | 1018 | 10 | O 14.4 | |
| Ieri h: 16:00 | Nuvoloso | 19 | 14 | 72 | 1018 | 10 | O 14.4 | |
| Ieri h: 15:30 | Molto Nuvoloso | 20 | 14 | 68 | 1018 | 10 | O/SO 14.4 | |
| Ieri h: 15:00 | Molto Nuvoloso | 19 | 14 | 72 | 1018 | 10 | O/SO 14.4 | |
| Ieri h: 14:30 | Molto Nuvoloso | 18 | 14 | 77 | 1019 | 10 | SO 14.4 | |
| Ieri h: 14:00 | Molto Nuvoloso | 19 | 14 | 72 | 1019 | 10 | SO 14.4 | |
| Ieri h: 13:30 | Molto Nuvoloso | 18 | 14 | 77 | 1019 | 10 | O/SO 14.4 | |
| Ieri h: 13:00 | Molto Nuvoloso | 18 | 14 | 77 | 1019 | 10 | SO 14.4 | |



